Temperature
14 14 14 14 14 15 15 15 15 16 16 16 16 16 16 17 17 17 17 17 18 18 18 17 18 18 18 18 18 18 18 18 18 18 18 18 18 18 18 18 18 17 17
14 14 14 14 14 14 14 15 15 15 15 16 16 16 16 16 17 17 17 17 17 18 17 17 18 18 18 18 18 18 18 18 18 18 18 18 18 18 18 17 17 17 17
13 13 14 14 14 14 14 14 15 15 15 15 16 16 16 16 16 16 17 17 17 17 17 17 18 18 18 18 18 18 18 17 18 18 18 18 18 18 17 17 17 17 17
13 13 13 13 13 14 14 14 14 15 15 15 15 16 16 16 16 16 17 17 17 17 17 17 17 17 17 17 18 18 17 17 17 18 17 17 17 17 17 17 17 17 17
13 13 13 13 13 13 14 14 14 14 15 15 15 15 16 16 16 16 16 17 17 17 17 17 17 17 17 17 17 17 17 17 17 17 17 17 17 17 17 17 17 17 17
12 12 13 13 13 13 13 13 14 14 14 14 15 15 15 16 16 16 16 17 17 17 17 17 17 17 17 17 17 17 17 17 17 17 17 17 17 17 17 17 17 17 17
12 12 12 12 13 13 13 13 13 14 14 14 14 15 15 16 16 16 16 16 16 17 17 17 17 17 17 17 17 17 17 17 17 17 17 17 17 17 17 17 17 17 17
12 12 12 12 12 12 13 13 13 13 14 14 14 15 16 16 15 16 16 16 16 16 16 17 17 17 17 17 17 17 17 17 17 17 17 17 17 17 17 17 17 17 17
12 12 12 12 12 12 12 12 13 13 13 14 14 14 15 16 16 16 16 16 16 16 16 16 17 17 17 17 17 17 17 17 17 17 17 17 17 17 17 17 17 17 17
12 12 12 12 12 12 12 12 12 12 13 13 14 14 14 14 15 15 15 16 16 16 16 16 16 17 17 17 17 17 17 17 17 17 17 17 17 17 17 17 17 17 17
11 11 12 12 12 12 12 12 12 12 12 13 13 13 14 14 14 15 15 15 16 16 16 16 16 16 16 16 17 17 17 17 17 17 17 17 17 17 17 17 17 17 17
12 11 11 11 12 12 12 12 12 12 12 12 13 13 13 14 14 14 15 15 15 15 15 16 16 16 16 16 16 17 17 17 17 17 17 17 17 17 17 17 17 17 17
12 11 11 11 11 11 11 11 12 12 12 12 12 13 13 13 13 14 14 15 15 15 15 15 16 16 16 16 16 17 17 17 17 17 17 17 17 17 17 17 17 17 17
12 11 11 11 11 11 11 11 11 12 12 12 12 12 12 13 13 13 13 14 14 15 15 15 15 15 16 16 16 17 17 17 17 17 17 17 17 17 17 17 17 17 17
12 12 11 11 11 11 11 11 11 11 12 12 12 12 12 12 13 13 13 13 14 14 15 15 15 15 15 15 16 16 16 16 16 17 17 17 17 17 17 17 17 16 16
12 12 12 12 12 12 11 11 11 12 12 12 12 12 12 12 12 12 13 13 13 13 14 14 14 14 15 15 15 15 16 16 16 16 16 17 17 16 16 17 17 16 16
12 12 12 12 12 12 12 12 12 11 11 12 12 12 12 12 12 12 12 12 13 13 13 14 14 14 14 14 15 15 15 15 16 16 16 16 16 16 16 16 16 16 16
12 12 12 12 12 12 12 12 12 11 11 12 12 12 12 12 12 12 12 12 12 13 13 13 13 13 14 14 14 14 15 15 15 16 16 16 16 16 16 16 16 16 16
13 12 12 12 12 12 12 12 12 12 12 12 12 12 12 12 12 12 12 12 12 12 12 12 13 13 13 13 14 14 14 15 15 15 16 16 16 16 16 16 16 16 16
13 13 12 12 12 12 12 12 12 12 12 12 12 12 11 11 11 12 12 12 12 12 12 12 12 13 13 13 13 13 14 14 14 14 15 15 16 16 16 16 16 16 16
13 13 13 12 12 12 12 12 12 12 12 12 12 12 11 12 12 12 12 12 12 12 12 12 12 12 13 13 13 13 13 14 14 14 14 14 15 15 15 16 16 16 16
13 13 13 12 12 12 13 13 12 12 12 12 12 12 12 12 12 12 12 12 12 12 12 12 12 12 12 12 13 13 13 13 13 14 14 14 14 15 15 15 15 16 16
13 13 13 13 12 12 13 13 13 12 12 12 12 12 12 12 12 12 12 12 12 12 12 12 12 12 12 12 12 12 12 13 13 13 13 14 14 14 14 14 15 15 15
13 13 13 13 13 13 13 13 13 12 12 12 12 12 12 12 12 12 12 12 12 12 12 12 12 12 12 12 12 12 12 12 13 13 13 13 13 14 14 14 14 15 15
13 13 12 12 12 12 13 13 13 12 12 12 12 12 12 12 12 12 12 12 12 12 12 12 12 12 12 12 12 12 12 12 12 12 13 12 13 13 13 14 14 14 14
13 12 12 12 12 12 12 12 12 12 12 12 11 11 12 12 12 12 12 11 11 11 11 11 12 12 12 12 12 12 12 12 12 12 12 12 12 13 13 13 13 13 14
Wind_Speed
5 5 4 4 4 4 3 4 5 5 6 6 6 6 7 7 8 7 5 5 7 8 9 9 9 10 10 10 10 10 11 12 12 12 12 11 11 11 11 11 11 11 10
5 5 5 4 4 4 4 4 5 5 5 5 6 7 7 7 8 8 7 6 8 9 9 10 10 11 11 11 10 11 12 12 13 12 12 12 11 12 12 12 11 10 10
6 5 5 5 4 5 5 4 4 4 4 5 6 7 7 7 8 8 7 6 7 10 11 11 11 11 12 12 12 12 13 13 13 13 13 12 12 12 12 12 11 10 10
6 5 5 5 5 5 4 4 4 4 4 5 5 6 6 6 8 8 7 8 7 7 10 11 10 11 12 12 13 13 14 14 13 14 13 13 13 13 13 12 11 10 10
7 6 5 5 5 4 4 4 3 4 4 4 5 5 6 6 6 7 8 7 8 8 7 9 10 11 11 12 13 14 14 14 14 14 14 14 14 14 13 13 12 10 10
7 6 5 5 5 4 4 3 3 3 4 4 5 5 5 5 6 6 6 6 7 9 8 8 8 11 12 12 13 14 14 14 14 15 15 15 15 15 14 13 12 11 10
6 6 6 5 5 4 4 4 3 3 3 3 4 4 4 5 5 5 5 6 7 8 8 9 8 8 10 14 14 14 15 15 15 15 15 16 16 16 15 14 13 13 12
6 6 6 5 4 4 4 3 3 3 2 2 3 3 3 4 4 5 4 5 6 6 7 8 9 9 8 9 13 16 16 16 16 16 16 16 17 17 16 15 15 14 13
5 5 6 6 5 4 3 3 3 3 3 2 2 2 2 2 1 3 4 4 4 4 6 6 8 9 10 9 10 15 17 17 17 17 17 17 17 17 17 17 16 15 14
5 5 5 5 4 4 4 3 3 3 3 3 2 3 3 2 2 1 2 3 3 4 5 6 7 7 9 9 9 10 16 17 18 18 18 18 18 18 18 18 17 16 15
5 5 5 5 4 4 4 4 3 3 3 3 3 2 2 3 4 3 2 2 3 3 4 5 5 6 7 9 8 10 14 16 17 18 19 19 19 19 19 19 18 18 17
4 5 5 4 4 4 4 4 3 3 3 3 3 3 3 3 3 3 4 3 3 3 4 4 5 5 6 8 9 9 13 15 16 17 18 19 20 20 20 20 19 19 18
4 5 5 4 4 4 4 4 3 3 3 3 4 3 3 3 3 4 4 3 4 3 3 4 5 4 5 6 7 8 11 14 15 16 17 18 19 20 21 21 21 20 20
4 5 5 5 4 4 4 3 3 3 3 3 4 4 3 3 4 4 4 3 4 4 4 4 3 4 4 5 5 7 10 14 14 15 16 17 18 19 20 21 21 21 21
4 5 5 4 4 4 4 4 3 3 3 3 4 4 4 3 4 4 4 4 4 4 4 3 2 3 3 4 4 6 8 11 13 14 15 16 17 18 19 20 21 21 21
4 5 5 4 3 3 3 3 4 3 4 3 3 5 4 4 3 3 4 4 4 5 4 3 3 3 3 4 4 6 7 7 11 13 14 15 17 18 19 20 20 21 21
4 4 4 4 4 4 3 3 4 4 4 4 4 4 4 4 4 4 4 4 4 4 5 5 4 4 5 5 4 6 7 7 9 12 13 14 15 16 18 19 20 21 21
4 4 4 4 4 4 4 4 4 4 4 4 4 4 4 3 4 4 4 4 4 5 5 6 5 4 5 5 5 5 5 7 7 10 13 13 14 15 16 18 19 20 21
4 4 4 4 4 4 4 4 4 4 4 4 4 4 4 4 4 4 4 5 4 4 4 5 5 4 4 4 4 5 6 5 7 8 11 14 15 16 16 17 18 19 20
5 5 5 5 5 4 4 4 4 5 5 4 4 4 4 4 5 4 4 5 4 4 5 5 5 5 5 5 5 4 5 5 6 6 7 9 12 15 17 17 18 19 19
5 5 5 5 4 4 4 5 5 5 5 5 4 4 4 3 5 5 5 5 5 5 5 5 5 5 5 5 5 5 5 5 6 6 6 7 7 9 11 15 18 19 19
5 5 5 5 5 4 2 4 7 6 5 4 4 4 3 4 4 5 6 7 7 7 7 6 6 6 7 6 5 5 5 6 6 4 6 7 6 7 8 10 13 16 18
4 5 5 5 5 3 1 4 6 6 6 5 5 4 3 3 4 5 4 7 7 8 9 9 8 8 7 7 6 7 7 7 7 5 5 7 7 8 8 9 13 16 18
3 4 4 4 4 3 2 5 6 7 6 5 4 5 4 4 3 5 5 5 5 5 5 7 8 8 7 7 7 8 8 7 8 7 6 7 7 8 8 8 12 16 18
3 3 3 3 3 2 2 4 6 5 5 5 4 4 4 4 2 4 6 6 6 5 4 6 7 8 8 8 7 6 7 7 7 7 6 6 7 7 7 8 8 14 16
2 2 1 2 2 3 5 5 6 4 4 4 3 3 0 3 5 5 6 5 6 6 5 5 6 7 7 7 8 8 7 7 7 6 5 5 6 5 6 6 6 7 9
Wind_Direction
315 312 299 296 288 287 276 261 253 239 230 229 232 235 238 245 250 248 237 196 231 238 227 219 214 210 208 205 202 197 189 182 174 169 166 164 161 157 153 149 144 143 141
319 315 306 304 300 293 290 278 261 251 243 236 236 235 239 244 249 247 246 217 212 225 225 221 217 210 207 204 204 201 191 183 177 174 173 171 168 162 159 155 153 151 148
322 316 312 309 308 299 288 279 270 259 249 240 239 237 236 239 248 248 243 243 221 208 216 221 217 210 206 202 202 202 194 186 182 180 179 177 173 169 165 161 160 158 155
330 323 315 311 311 302 291 279 269 261 253 248 246 244 237 230 242 246 242 234 231 223 204 205 212 210 205 203 203 201 195 188 186 185 183 180 176 175 171 168 166 165 163
333 326 321 316 312 302 294 286 277 271 263 257 255 248 244 236 236 236 237 235 231 227 218 184 198 206 204 204 205 202 197 192 190 190 187 183 181 179 178 175 173 172 169
336 331 322 321 319 307 303 292 286 278 275 267 265 257 244 237 233 231 236 232 234 227 219 204 201 202 204 205 205 203 199 196 194 194 192 189 186 184 183 181 180 179 177
332 330 326 329 323 319 314 308 299 286 280 276 264 257 237 232 233 224 226 228 226 227 218 206 208 202 198 204 207 202 200 200 199 198 197 194 191 189 189 188 187 186 186
333 328 331 327 327 320 314 317 312 306 291 275 273 268 242 210 216 220 219 223 227 215 223 217 209 205 209 202 200 201 203 202 202 202 201 198 194 194 194 195 193 193 194
335 332 330 326 325 322 328 322 315 310 306 292 280 279 269 248 227 205 214 218 226 224 223 226 220 213 209 209 201 199 202 203 204 205 204 202 200 198 199 199 199 200 200
342 336 330 328 327 329 328 319 332 312 297 296 290 274 281 300 279 239 208 210 218 225 230 229 227 224 221 216 210 201 198 203 207 209 209 206 203 204 204 202 203 203 205
344 343 339 335 333 328 327 327 318 306 293 289 294 290 281 272 263 261 250 241 231 227 233 236 231 229 227 225 216 206 195 204 210 213 212 210 208 208 209 207 205 207 209
342 350 339 333 333 332 328 324 315 302 295 290 285 277 276 275 270 263 260 256 258 247 237 229 230 230 232 230 224 197 195 206 214 217 216 214 212 211 212 211 210 212 213
346 349 340 333 335 332 325 318 309 310 294 286 284 286 282 280 285 281 276 272 266 266 253 234 224 221 224 226 225 195 204 209 215 220 220 218 218 216 214 214 213 214 216
340 339 336 331 333 329 317 315 307 307 296 284 285 288 283 281 284 281 280 279 269 257 244 240 223 223 227 227 219 210 218 208 215 220 220 220 221 221 219 218 218 217 217
327 331 328 325 330 329 322 315 311 310 297 286 285 280 278 283 282 283 277 268 266 266 258 248 239 223 229 233 212 229 233 207 209 217 220 221 221 222 222 222 221 220 219
320 317 325 329 331 328 322 316 307 316 300 292 283 279 277 278 284 277 274 269 260 264 266 262 260 260 256 255 219 240 242 210 212 217 221 222 223 223 223 223 222 221 220
297 304 314 321 327 327 324 313 306 307 297 293 281 274 270 277 275 269 261 261 259 256 262 268 263 265 257 257 247 246 244 235 223 210 218 222 223 224 225 224 221 220 220
284 291 299 304 316 318 315 310 306 303 301 300 295 284 276 270 273 275 268 259 256 256 264 274 274 270 266 261 260 256 250 241 240 209 214 223 225 226 227 225 222 221 220
274 277 282 290 298 302 306 303 296 296 297 295 294 285 282 278 276 277 273 267 257 253 259 264 271 272 273 266 263 258 253 250 250 227 215 222 225 228 228 228 225 222 221
274 280 281 283 286 290 291 294 291 291 294 294 289 284 281 277 278 282 276 273 264 257 254 256 264 265 267 268 260 260 260 247 247 243 234 229 225 225 228 229 226 223 221
272 277 281 279 278 281 293 303 297 289 290 292 287 281 280 291 310 297 290 285 272 261 255 255 258 261 262 262 258 259 262 263 254 239 240 234 227 229 226 226 226 225 222
273 276 276 276 277 275 317 301 291 287 286 285 293 294 278 248 250 252 268 283 284 272 267 262 259 260 265 264 263 258 261 264 263 238 246 249 237 240 236 232 220 217 220
272 277 276 278 279 283 285 283 277 281 280 286 291 294 297 290 276 275 249 244 254 251 259 268 269 269 274 274 268 263 259 262 266 270 265 264 250 247 243 235 212 213 218
276 277 284 287 290 307 325 295 285 263 269 274 277 285 288 292 295 303 291 282 284 277 265 260 267 275 280 282 272 267 271 272 274 266 253 261 261 256 254 242 214 211 216
277 280 289 299 299 320 25 323 295 263 260 264 269 280 291 292 7 309 286 284 286 285 249 243 267 278 290 283 274 268 260 255 265 262 246 251 263 266 262 253 229 209 214
265 275 291 307 320 336 42 6 315 276 273 273 268 268 271 312 343 313 284 286 288 297 300 282 254 247 258 252 236 249 258 259 265 268 252 246 263 270 269 253 242 228 222
Height
1512 1511 1510 1508 1508 1508 1507 1507 1508 1509 1510 1511 1512 1513 1514 1516 1517 1518 1519 1519 1520 1521 1522 1524 1525 1527 1528 1529 1531 1533 1534 1536 1538 1540 1541 1543 1544 1546 1547 1548 1549 1551 1552
1510 1509 1508 1507 1507 1506 1506 1505 1506 1506 1507 1508 1509 1510 1511 1513 1515 1516 1517 1517 1518 1519 1521 1522 1524 1525 1527 1528 1530 1532 1534 1535 1537 1539 1541 1542 1544 1546 1547 1548 1550 1551 1552
1509 1507 1506 1506 1505 1504 1504 1504 1504 1504 1504 1505 1506 1507 1508 1509 1511 1513 1514 1515 1517 1517 1519 1520 1522 1523 1525 1527 1528 1530 1532 1534 1536 1538 1540 1542 1544 1545 1547 1549 1550 1551 1552
1507 1506 1504 1504 1503 1502 1502 1502 1502 1502 1503 1503 1504 1505 1506 1507 1508 1510 1511 1513 1515 1516 1517 1518 1520 1522 1524 1525 1527 1529 1531 1533 1535 1537 1539 1541 1543 1545 1547 1549 1550 1551 1553
1506 1505 1503 1502 1501 1501 1500 1500 1500 1500 1500 1501 1501 1502 1503 1504 1505 1506 1508 1510 1512 1514 1516 1516 1518 1520 1522 1524 1525 1527 1530 1532 1534 1536 1538 1540 1542 1544 1546 1548 1550 1551 1552
1504 1503 1502 1501 1500 1499 1498 1498 1498 1498 1498 1498 1499 1500 1500 1501 1502 1504 1505 1507 1509 1511 1513 1514 1516 1517 1519 1521 1523 1525 1528 1530 1532 1534 1536 1539 1541 1543 1545 1547 1549 1550 1552
1503 1502 1501 1500 1498 1498 1497 1497 1497 1497 1497 1497 1498 1498 1499 1499 1500 1501 1503 1504 1506 1508 1510 1512 1514 1516 1517 1519 1521 1523 1525 1528 1530 1532 1535 1537 1539 1541 1544 1546 1547 1549 1551
1502 1501 1500 1499 1498 1496 1496 1496 1495 1495 1495 1496 1497 1497 1497 1498 1497 1499 1500 1501 1504 1505 1507 1510 1511 1513 1515 1517 1518 1521 1523 1525 1528 1530 1533 1535 1537 1539 1542 1544 1546 1547 1549
1502 1500 1499 1498 1497 1496 1495 1495 1494 1494 1494 1495 1495 1496 1496 1495 1496 1497 1498 1499 1500 1502 1504 1506 1508 1510 1512 1514 1516 1518 1520 1523 1525 1528 1530 1532 1535 1537 1539 1542 1544 1545 1547
1501 1500 1499 1497 1497 1496 1495 1494 1494 1493 1493 1494 1494 1494 1495 1495 1496 1496 1496 1497 1498 1499 1501 1503 1505 1507 1509 1511 1513 1515 1517 1520 1522 1525 1527 1530 1532 1534 1537 1539 1541 1543 1545
1501 1499 1498 1497 1496 1495 1495 1494 1493 1493 1493 1493 1493 1493 1493 1493 1494 1495 1495 1496 1497 1497 1498 1500 1502 1504 1506 1508 1510 1512 1514 1517 1519 1522 1524 1527 1529 1531 1534 1536 1539 1540 1542
1501 1500 1497 1496 1495 1495 1494 1493 1492 1492 1492 1491 1491 1492 1492 1492 1493 1493 1493 1493 1494 1496 1496 1497 1498 1500 1502 1504 1506 1508 1511 1514 1516 1519 1521 1524 1526 1528 1531 1533 1535 1537 1539
1502 1500 1498 1496 1495 1494 1493 1492 1491 1491 1491 1490 1490 1491 1491 1491 1491 1491 1492 1492 1493 1493 1494 1495 1496 1497 1499 1501 1503 1505 1507 1510 1512 1515 1517 1520 1522 1525 1527 1529 1532 1534 1536
1501 1499 1497 1496 1494 1493 1492 1491 1491 1490 1490 1490 1490 1489 1489 1489 1490 1490 1490 1491 1491 1491 1492 1493 1493 1494 1496 1498 1499 1501 1503 1505 1508 1511 1513 1515 1518 1520 1523 1525 1528 1530 1532
1500 1499 1497 1496 1494 1493 1491 1491 1490 1490 1489 1489 1488 1488 1488 1488 1488 1488 1488 1489 1490 1490 1490 1491 1491 1492 1493 1494 1495 1497 1499 1501 1504 1506 1509 1511 1513 1516 1518 1521 1523 1525 1527
1500 1498 1497 1496 1494 1493 1491 1490 1489 1488 1488 1487 1486 1486 1486 1486 1486 1486 1486 1486 1487 1488 1488 1488 1489 1489 1490 1491 1492 1493 1495 1497 1499 1502 1504 1506 1508 1511 1513 1516 1518 1520 1523
1499 1498 1497 1496 1494 1493 1491 1490 1489 1488 1487 1486 1486 1485 1485 1484 1484 1484 1484 1484 1485 1485 1486 1486 1486 1486 1487 1488 1489 1490 1491 1493 1495 1497 1499 1501 1503 1505 1508 1510 1513 1515 1517
1499 1497 1496 1495 1494 1492 1491 1489 1488 1487 1486 1485 1484 1484 1483 1483 1482 1482 1482 1482 1482 1482 1483 1483 1484 1484 1484 1485 1485 1486 1487 1488 1490 1491 1493 1495 1497 1500 1502 1504 1506 1509 1511
1498 1497 1496 1494 1493 1491 1490 1488 1487 1486 1485 1484 1483 1482 1482 1481 1481 1480 1480 1480 1480 1480 1480 1480 1480 1481 1481 1481 1482 1482 1483 1484 1485 1487 1488 1490 1491 1493 1495 1498 1500 1502 1504
1496 1496 1495 1493 1492 1490 1489 1488 1486 1485 1484 1483 1482 1481 1480 1479 1479 1479 1478 1478 1477 1477 1477 1477 1477 1478 1478 1478 1478 1478 1479 1480 1481 1482 1483 1484 1485 1487 1489 1491 1493 1495 1497
1494 1494 1493 1491 1490 1489 1488 1487 1485 1484 1483 1482 1481 1480 1478 1477 1477 1476 1476 1476 1475 1475 1475 1475 1475 1475 1475 1474 1475 1475 1476 1476 1477 1477 1478 1479 1480 1481 1482 1484 1486 1488 1490
1492 1491 1490 1489 1488 1487 1486 1485 1483 1483 1482 1481 1480 1479 1477 1476 1475 1474 1474 1473 1473 1473 1473 1473 1472 1472 1472 1472 1471 1471 1472 1472 1473 1474 1474 1474 1474 1475 1476 1477 1478 1481 1483
1490 1489 1488 1487 1486 1485 1484 1483 1482 1481 1481 1480 1478 1477 1476 1475 1474 1473 1472 1471 1471 1470 1470 1469 1469 1469 1469 1468 1468 1468 1468 1468 1468 1469 1469 1468 1469 1469 1470 1471 1472 1473 1475
1487 1486 1485 1484 1483 1482 1481 1480 1480 1479 1479 1478 1477 1476 1475 1474 1472 1471 1471 1470 1469 1468 1467 1466 1466 1465 1465 1465 1464 1464 1464 1464 1464 1464 1464 1464 1464 1464 1465 1465 1466 1467 1468
1485 1484 1483 1482 1481 1480 1479 1478 1477 1477 1477 1476 1475 1474 1473 1472 1470 1469 1468 1467 1466 1465 1464 1463 1462 1462 1461 1461 1461 1460 1460 1460 1459 1459 1460 1460 1459 1459 1459 1459 1460 1460 1461
1482 1481 1480 1479 1478 1477 1476 1476 1475 1475 1475 1474 1473 1472 1470 1469 1468 1467 1466 1465 1464 1463 1462 1461 1460 1459 1458 1458 1457 1457 1457 1456 1456 1456 1455 1455 1455 1455 1454 1454 1454 1454 1455